Location: Fours
(44.3167°N, 6.7000°E)
Time: 13:53:17
(UTC+00:00)

Cosmos 2227 - Pass Details

Date: 01 June 2022
Orbit: 833 x 863 km, 71.0° (Epoch: 28 June)

Event Time Altitude Azimuth Distance (km) Brightness Sun altitude
Rises 19:37:27 0° 337° (NNW) 3,446 8.6 -4.8°
Reaches altitude 10° 19:39:58 10° 341° (NNW) 2,508 7.7 -5.2°
Maximum altitude 19:45:39 59° 61° (ENE) 997 4.5 -6.0°
Drops below altitude 10° 19:51:19 10° 140° (SE) 2,495 6.0 -6.7°
Enters shadow 19:51:53 - 141° (SE) 2,705 6.2 -6.8°
